Regional Weather Roundup
Issued by NWS Upton, NY

Current Version | Previous Version | Text Only | Print | Product List | Glossary Off
Versions: 1 2 3 4 5 6 7 8 9 10 11 12 13 14 15 16 17 18 19 20 21 22 23 24 25 26 27 28 29 30 31 32 33 34 35 36 37 38 39 40 41 42 43 44 45 46 47 48 49 50
000 ASUS41 KOKX 310605 RWROKX REGIONAL WEATHER ROUNDUP NATIONAL WEATHER SERVICE NEW YORK NY 100 AM EST SAT JAN 31 2015 NOTE: "FAIR" INDICATES FEW OR NO CLOUDS BELOW 12,000 FEET WITH NO SIGNIFICANT WEATHER AND/OR OBSTRUCTIONS TO VISIBILITY. NYZ071-072-176-178-NJZ106-104-310700- NEW YORK CITY METRO AREA CITY SKY/WX TMP DP RH WIND PRES REMARKS CENTRAL PARK CLEAR 18 1 47 NW20G39 30.07R WCI 2 LAGUARDIA APRT PTCLDY 19 7 59 NW25G35 30.02R WCI 1 KENNEDY INTL PTCLDY 19 3 49 NW28G39 30.01S WCI 1 NEWARK/LIBERTY PTCLDY 17 3 54 NW25G33 30.05S WCI -1 BRNX BOT. GARD N/A N/A N/A N/A NW18 30.00F TETERBORO CLEAR 17 1 49 NW17G33 30.04R WCI 1 $$ NYZ177-179-078>081-310700- LONG ISLAND NEW YORK CITY SKY/WX TMP DP RH WIND PRES REMARKS FARMINGDALE CLEAR 20 5 52 NW17G36 29.97S WCI 5 ISLIP CLEAR 19 4 51 NW25G38 29.91S WCI 1 SHIRLEY CLEAR 18 5 57 NW25G37 29.92S WCI 0 WESTHAMPTON CLEAR 18 4 54 NW30G40 29.89F WCI -1 MONTAUK POINT N/A 19 8 62 NW21G33 29.85S WCI 3 $$ NYZ052-065-067-310700- HUDSON VALLEY CITY SKY/WX TMP DP RH WIND PRES REMARKS WHITE PLAINS CLEAR 17 2 51 NW28G36 29.94S WCI -2 NEWBURGH NOT AVBL MONTGOMERY PTCLDY 15 0 51 NW22G37 30.02R WCI -3 POUGHKEEPSIE CLEAR 16 -1 47 N16G28 30.03R WCI 1 ALBANY PTCLDY 6 -5 60 NW20 30.08F WCI -14 $$ NJZ001-105-106-008-010-013-015-019>022-104-310700- NEW JERSEY CITY SKY/WX TMP DP RH WIND PRES REMARKS NEWARK/LIBERTY PTCLDY 17 3 54 NW25G33 30.05S WCI -1 TETERBORO CLEAR 17 1 49 NW17G33 30.04R WCI 1 CALDWELL CLEAR 16 1 51 NW13G28 30.06R WCI 2 MORRISTOWN CLEAR 18 1 49 NW16G23 30.06R WCI 3 SOMERVILLE FAIR 17 1 49 NW14G33 30.08R WCI 3 SUSSEX CLEAR 14 1 56 NW15G30 30.03S WCI -1 ANDOVER N/A 13 0 56 N8G18 30.04F WCI 2 TRENTON CLEAR 16 1 51 NW22G33 30.08S WCI -2 MILLVILLE CLEAR 20 4 50 W17G29 30.13R WCI 5 ATLANTIC CITY CLEAR 19 4 51 NW21G32 30.09R WCI 3 WRIGHTSTOWN CLEAR 17 2 51 NW21G32 30.07R WCI 0 TOMS RIVER CLEAR 18 3 53 NW23G30 30.07R WCI 0 BELMAR CLEAR 18 0 45 W25G31 30.04R WCI -1 $$ PAZ047>061-062-071-310700- EASTERN PENNSYLVANIA CITY SKY/WX TMP DP RH WIND PRES REMARKS PHILADELPHIA CLEAR 19 0 43 NW23G31 30.16S WCI 2 ALLENTOWN PTCLDY 14 -1 51 NW13G22 30.14S WCI 0 SCRANTON CLOUDY 11 -1 58 N12G28 30.13S WCI -3 $$ CTZ002-004>006-009-010-012-RIZ004-006-007-MAZ004-011-015-310700- SOUTHERN NEW ENGLAND IN CT CITY SKY/WX TMP DP RH WIND PRES REMARKS BRADLEY INTL CLEAR 13 -1 54 NW12 29.91S WCI -1 HARTFORD CLEAR 13 0 56 NW16G25 29.94S WCI -3 DANBURY CLEAR 13 -1 54 NW8 29.96S WCI 2 WTRBRY/OXFORD CLEAR 10 -8 44 NW21G32 29.88S WCI -9 BRIDGEPORT CLEAR 16 3 56 NW18G28 29.94S WCI 0 MERIDEN CLEAR 13 -1 54 NW15G24 29.93S WCI -3 NEW HAVEN CLEAR 15 1 53 NW20G31 29.92F WCI -2 CHESTER FAIR 14 3 62 NW21G32 29.84S WCI -4 GROTON PTCLDY 14 4 64 NW24G31 29.82S WCI -5 WILLIMANTIC CLEAR 14 2 58 NW8 29.85S WCI 3 IN RI CITY SKY/WX TMP DP RH WIND PRES REMARKS PROVIDENCE CLOUDY 18 4 54 NW22G29 29.77S WCI 1 BLOCK ISLAND PTCLDY 18 7 62 NW17G31 29.77S WCI 2 WESTERLY MOCLDY 16 4 59 NW14G28 29.80F WCI 2 IN MA CITY SKY/WX TMP DP RH WIND PRES REMARKS BOSTON LGT SNOW 18 7 62 NW23G35 29.72F WCI 0 WORCESTER CLEAR 9 0 67 NW29G45 29.71F WCI -13 WESTFIELD CLEAR 13 -1 54 NW22G32 29.90S WCI -6 PROVINCETOWN CLOUDY 23 14 68 NW28G44 29.65F WCI 6 NANTUCKET CLOUDY 27 16 63 NW26G33 29.64S WCI 12 $$ ANZ330-335-338-340-345-350-353-355-310700- COASTAL MARINE OBSERVATIONS STATION/POSITION TIME SKY/WX TEMP WIND PRES VSBY WAVE AIR SEA DIR/SP/G HT/PER (UTC) (F) (DEG/KT/KT) (MB) (MI) (FT/S) NY HARB ENTRANCE 0600 22 40 310/ 33/ 41 1014.9 6/ 6 4S FIRE IS 0600 38 N/A 5/ 5 20S FIRE ISLAND 0500 41 1013.6 9/ 7 23SW MTP 0600 N/A 9/ 6 HUDSON CANYON NOT AVBL EXECUTION ROCKS 0500 21 33 300/ 19/ 27 N/A WESTERN LI SOUND 0500 22 310/ 19/ 29 N/A 2/ 3 CENTRAL LI SOUND 0500 19 35 310/ 29/ 37 N/A 5/ 5 EASTERN LI SOUND NOT AVBL ROBBINS REEF 0500 18 330/ 25/ 31 1015.9 $$ >>>>>>>>>>>>>>>>>>>>>>>>>>>> KEY <<<<<<<<<<<<<<<<<<<<<<<<<<< > < > SKY/WX - SKY CONDITION/PRESENT WEATHER < > TMP - TEMPERATURE IN FAHRENHEIT < > DP - DEWPOINT IN FAHRENHEIT < > RH - RELATIVE HUMIDITY IN PERCENT < > WIND - DIRECTION AND SPEED IN MPH < > PRES - MEAN SEA LEVEL PRESSURE IN INCHES OF HG < > WCI - WIND CHILL INDEX < > VSB - VISIBILITY IN MILES < > HX - HEAT INDEX < > TC - TEMPERATURE IN CELSIUS < > VRB - VARIABLE WIND DIRECTION < > < >>>>>>>>>>>>>>>>>>>>>>>>>>>> KEY <<<<<<<<<<<<<<<<<<<<<<<<<<<

USA.gov is the U.S. government's official web portal to all federal, state and local government web resources and services.